owner,sensor,date,latitude,longitude,vertical_datum,mass_concentration_of_oxygen_in_sea_water,qcFlag 
TCOON,ioos:station:TCOON:074:1,2017-07-01T00:30:00Z,27.8516,-97.4820,1.0,5.09,1111122 
TCOON,ioos:station:TCOON:074:1,2017-07-01T01:30:00Z,27.8516,-97.4820,1.0,5.1,1111122 
TCOON,ioos:station:TCOON:074:1,2017-07-01T02:30:00Z,27.8516,-97.4820,1.0,4.8,1111122 
TCOON,ioos:station:TCOON:074:1,2017-07-01T03:30:00Z,27.8516,-97.4820,1.0,4.46,1111122 
TCOON,ioos:station:TCOON:074:1,2017-07-01T05:30:00Z,27.8516,-97.4820,1.0,4.07,1111122 
TCOON,ioos:station:TCOON:074:1,2017-07-01T06:30:00Z,27.8516,-97.4820,1.0,4.0,1111122 
TCOON,ioos:station:TCOON:074:1,2017-07-01T07:30:00Z,27.8516,-97.4820,1.0,3.85,1111122 
TCOON,ioos:station:TCOON:074:1,2017-07-01T08:30:00Z,27.8516,-97.4820,1.0,3.78,1111122 
TCOON,ioos:station:TCOON:074:1,2017-07-01T09:30:00Z,27.8516,-97.4820,1.0,3.83,1111122 
TCOON,ioos:station:TCOON:074:1,2017-07-01T10:30:00Z,27.8516,-97.4820,1.0,3.77,1111122 
TCOON,ioos:station:TCOON:074:1,2017-07-01T11:30:00Z,27.8516,-97.4820,1.0,3.44,1111122 
TCOON,ioos:station:TCOON:074:1,2017-07-01T12:30:00Z,27.8516,-97.4820,1.0,3.13,1111122 
TCOON,ioos:station:TCOON:074:1,2017-07-01T13:30:00Z,27.8516,-97.4820,1.0,3.09,1111122 
TCOON,ioos:station:TCOON:074:1,2017-07-01T14:30:00Z,27.8516,-97.4820,1.0,3.74,1111122 
TCOON,ioos:station:TCOON:074:1,2017-07-01T15:30:00Z,27.8516,-97.4820,1.0,3.72,1111122 
TCOON,ioos:station:TCOON:074:1,2017-07-01T16:30:00Z,27.8516,-97.4820,1.0,3.86,1111122 
TCOON,ioos:station:TCOON:074:1,2017-07-01T17:30:00Z,27.8516,-97.4820,1.0,3.6,1111122 
TCOON,ioos:station:TCOON:074:1,2017-07-01T18:30:00Z,27.8516,-97.4820,1.0,3.72,1111122 
TCOON,ioos:station:TCOON:074:1,2017-07-01T19:30:00Z,27.8516,-97.4820,1.0,3.72,1111122 
TCOON,ioos:station:TCOON:074:1,2017-07-01T21:30:00Z,27.8516,-97.4820,1.0,3.86,1111122 
TCOON,ioos:station:TCOON:074:1,2017-07-01T22:30:00Z,27.8516,-97.4820,1.0,4.0,1111122 
TCOON,ioos:station:TCOON:074:1,2017-07-01T23:30:00Z,27.8516,-97.4820,1.0,3.93,1111122 
TCOON,ioos:station:TCOON:074:1,2017-07-02T00:30:00Z,27.8516,-97.4820,1.0,3.87,1111122 
TCOON,ioos:station:TCOON:074:1,2017-07-02T01:30:00Z,27.8516,-97.4820,1.0,3.7,1111122 
TCOON,ioos:station:TCOON:074:1,2017-07-02T02:30:00Z,27.8516,-97.4820,1.0,3.71,1111122 
TCOON,ioos:station:TCOON:074:1,2017-07-02T03:30:00Z,27.8516,-97.4820,1.0,3.7,1111122 
TCOON,ioos:station:TCOON:074:1,2017-07-02T04:30:00Z,27.8516,-97.4820,1.0,3.42,1111122 
TCOON,ioos:station:TCOON:074:1,2017-07-02T05:30:00Z,27.8516,-97.4820,1.0,3.18,1111122 
TCOON,ioos:station:TCOON:074:1,2017-07-02T06:30:00Z,27.8516,-97.4820,1.0,3.1,1111122 
TCOON,ioos:station:TCOON:074:1,2017-07-02T07:30:00Z,27.8516,-97.4820,1.0,3.18,1111122 
TCOON,ioos:station:TCOON:074:1,2017-07-02T08:30:00Z,27.8516,-97.4820,1.0,3.1,1111122 
TCOON,ioos:station:TCOON:074:1,2017-07-02T09:30:00Z,27.8516,-97.4820,1.0,2.71,1111122 
TCOON,ioos:station:TCOON:074:1,2017-07-02T10:30:00Z,27.8516,-97.4820,1.0,2.77,1111122 
TCOON,ioos:station:TCOON:074:1,2017-07-02T11:30:00Z,27.8516,-97.4820,1.0,2.76,1111122 
TCOON,ioos:station:TCOON:074:1,2017-07-02T13:30:00Z,27.8516,-97.4820,1.0,2.87,1111122 
TCOON,ioos:station:TCOON:074:1,2017-07-02T14:30:00Z,27.8516,-97.4820,1.0,3.01,1111122 
TCOON,ioos:station:TCOON:074:1,2017-07-02T15:30:00Z,27.8516,-97.4820,1.0,2.88,1111122 
TCOON,ioos:station:TCOON:074:1,2017-07-02T16:30:00Z,27.8516,-97.4820,1.0,3.08,1111122 
TCOON,ioos:station:TCOON:074:1,2017-07-02T17:30:00Z,27.8516,-97.4820,1.0,3.28,1111122 
TCOON,ioos:station:TCOON:074:1,2017-07-02T18:30:00Z,27.8516,-97.4820,1.0,3.3,1111122 
TCOON,ioos:station:TCOON:074:1,2017-07-02T19:30:00Z,27.8516,-97.4820,1.0,3.96,1111122 
TCOON,ioos:station:TCOON:074:1,2017-07-02T20:30:00Z,27.8516,-97.4820,1.0,3.82,1111122 
TCOON,ioos:station:TCOON:074:1,2017-07-02T21:30:00Z,27.8516,-97.4820,1.0,3.58,1111122 
TCOON,ioos:station:TCOON:074:1,2017-07-02T22:30:00Z,27.8516,-97.4820,1.0,3.56,1111122 
TCOON,ioos:station:TCOON:074:1,2017-07-02T23:30:00Z,27.8516,-97.4820,1.0,3.46,1111122 
TCOON,ioos:station:TCOON:074:1,2017-07-03T00:30:00Z,27.8516,-97.4820,1.0,3.48,1111122 
TCOON,ioos:station:TCOON:074:1,2017-07-03T01:30:00Z,27.8516,-97.4820,1.0,3.25,1111122 
TCOON,ioos:station:TCOON:074:1,2017-07-03T02:30:00Z,27.8516,-97.4820,1.0,3.14,1111122 
TCOON,ioos:station:TCOON:074:1,2017-07-03T03:30:00Z,27.8516,-97.4820,1.0,2.86,1111122 
TCOON,ioos:station:TCOON:074:1,2017-07-03T04:30:00Z,27.8516,-97.4820,1.0,2.62,1111122 
TCOON,ioos:station:TCOON:074:1,2017-07-03T05:30:00Z,27.8516,-97.4820,1.0,2.7,1111122 
TCOON,ioos:station:TCOON:074:1,2017-07-03T06:30:00Z,27.8516,-97.4820,1.0,2.6,1111122 
TCOON,ioos:station:TCOON:074:1,2017-07-03T07:30:00Z,27.8516,-97.4820,1.0,2.55,1111122 
TCOON,ioos:station:TCOON:074:1,2017-07-03T08:30:00Z,27.8516,-97.4820,1.0,2.36,1111122 
TCOON,ioos:station:TCOON:074:1,2017-07-03T09:30:00Z,27.8516,-97.4820,1.0,2.24,1111122 
TCOON,ioos:station:TCOON:074:1,2017-07-03T10:30:00Z,27.8516,-97.4820,1.0,2.32,1111122 
TCOON,ioos:station:TCOON:074:1,2017-07-03T11:30:00Z,27.8516,-97.4820,1.0,2.01,1111122 
TCOON,ioos:station:TCOON:074:1,2017-07-03T12:30:00Z,27.8516,-97.4820,1.0,2.2,1111122 
TCOON,ioos:station:TCOON:074:1,2017-07-03T13:30:00Z,27.8516,-97.4820,1.0,2.4,1111122 
TCOON,ioos:station:TCOON:074:1,2017-07-03T14:30:00Z,27.8516,-97.4820,1.0,2.43,1111122 
TCOON,ioos:station:TCOON:074:1,2017-07-03T15:30:00Z,27.8516,-97.4820,1.0,2.53,1111122 
TCOON,ioos:station:TCOON:074:1,2017-07-03T16:30:00Z,27.8516,-97.4820,1.0,2.53,1111122 
TCOON,ioos:station:TCOON:074:1,2017-07-03T17:30:00Z,27.8516,-97.4820,1.0,2.36,1111122 
TCOON,ioos:station:TCOON:074:1,2017-07-03T18:30:00Z,27.8516,-97.4820,1.0,2.21,1111122 
TCOON,ioos:station:TCOON:074:1,2017-07-03T19:30:00Z,27.8516,-97.4820,1.0,2.6,1111122 
TCOON,ioos:station:TCOON:074:1,2017-07-03T21:30:00Z,27.8516,-97.4820,1.0,2.62,1111122 
TCOON,ioos:station:TCOON:074:1,2017-07-03T23:30:00Z,27.8516,-97.4820,1.0,2.59,1111122 
TCOON,ioos:station:TCOON:074:1,2017-07-04T00:30:00Z,27.8516,-97.4820,1.0,2.51,1111122 
TCOON,ioos:station:TCOON:074:1,2017-07-04T01:30:00Z,27.8516,-97.4820,1.0,2.24,1111122 
TCOON,ioos:station:TCOON:074:1,2017-07-04T03:30:00Z,27.8516,-97.4820,1.0,1.84,1111122 
TCOON,ioos:station:TCOON:074:1,2017-07-04T05:30:00Z,27.8516,-97.4820,1.0,1.74,1111122 
TCOON,ioos:station:TCOON:074:1,2017-07-04T06:30:00Z,27.8516,-97.4820,1.0,1.63,1111122 
TCOON,ioos:station:TCOON:074:1,2017-07-04T07:30:00Z,27.8516,-97.4820,1.0,1.48,1111122 
TCOON,ioos:station:TCOON:074:1,2017-07-04T08:30:00Z,27.8516,-97.4820,1.0,1.59,1111122 
TCOON,ioos:station:TCOON:074:1,2017-07-04T09:30:00Z,27.8516,-97.4820,1.0,1.47,1111122 
TCOON,ioos:station:TCOON:074:1,2017-07-04T10:30:00Z,27.8516,-97.4820,1.0,1.55,1111122 
TCOON,ioos:station:TCOON:074:1,2017-07-04T11:30:00Z,27.8516,-97.4820,1.0,1.58,1111122 
TCOON,ioos:station:TCOON:074:1,2017-07-04T12:30:00Z,27.8516,-97.4820,1.0,1.57,1111122 
TCOON,ioos:station:TCOON:074:1,2017-07-04T13:30:00Z,27.8516,-97.4820,1.0,1.59,1111122 
TCOON,ioos:station:TCOON:074:1,2017-07-04T14:30:00Z,27.8516,-97.4820,1.0,1.59,1111122 
TCOON,ioos:station:TCOON:074:1,2017-07-04T15:30:00Z,27.8516,-97.4820,1.0,1.57,1111122 
TCOON,ioos:station:TCOON:074:1,2017-07-04T16:30:00Z,27.8516,-97.4820,1.0,1.79,1111122 
TCOON,ioos:station:TCOON:074:1,2017-07-04T17:30:00Z,27.8516,-97.4820,1.0,1.82,1111122 
TCOON,ioos:station:TCOON:074:1,2017-07-04T19:30:00Z,27.8516,-97.4820,1.0,1.85,1111122 
TCOON,ioos:station:TCOON:074:1,2017-07-04T20:30:00Z,27.8516,-97.4820,1.0,2.02,1111122 
TCOON,ioos:station:TCOON:074:1,2017-07-04T21:30:00Z,27.8516,-97.4820,1.0,2.1,1111122 
TCOON,ioos:station:TCOON:074:1,2017-07-04T22:30:00Z,27.8516,-97.4820,1.0,2.13,1111122 
TCOON,ioos:station:TCOON:074:1,2017-07-04T23:30:00Z,27.8516,-97.4820,1.0,2.04,1111122 
TCOON,ioos:station:TCOON:074:1,2017-07-05T00:30:00Z,27.8516,-97.4820,1.0,1.96,1111122 
TCOON,ioos:station:TCOON:074:1,2017-07-05T01:30:00Z,27.8516,-97.4820,1.0,1.88,1111122 
TCOON,ioos:station:TCOON:074:1,2017-07-05T02:30:00Z,27.8516,-97.4820,1.0,1.84,1111122 
TCOON,ioos:station:TCOON:074:1,2017-07-05T05:30:00Z,27.8516,-97.4820,1.0,1.66,1111122 
TCOON,ioos:station:TCOON:074:1,2017-07-05T06:30:00Z,27.8516,-97.4820,1.0,1.61,1111122 
TCOON,ioos:station:TCOON:074:1,2017-07-05T07:30:00Z,27.8516,-97.4820,1.0,1.5,1111122 
TCOON,ioos:station:TCOON:074:1,2017-07-05T08:30:00Z,27.8516,-97.4820,1.0,1.63,1111122 
TCOON,ioos:station:TCOON:074:1,2017-07-05T09:30:00Z,27.8516,-97.4820,1.0,1.58,1111122 
TCOON,ioos:station:TCOON:074:1,2017-07-05T10:30:00Z,27.8516,-97.4820,1.0,1.42,1111122 
TCOON,ioos:station:TCOON:074:1,2017-07-05T11:30:00Z,27.8516,-97.4820,1.0,1.35,1111122 
TCOON,ioos:station:TCOON:074:1,2017-07-05T13:30:00Z,27.8516,-97.4820,1.0,1.33,1111122 
TCOON,ioos:station:TCOON:074:1,2017-07-05T14:30:00Z,27.8516,-97.4820,1.0,1.35,1111122 
TCOON,ioos:station:TCOON:074:1,2017-07-05T15:30:00Z,27.8516,-97.4820,1.0,5.58,1111122 
TCOON,ioos:station:TCOON:074:1,2017-07-05T16:30:00Z,27.8516,-97.4820,1.0,5.86,1111122 
TCOON,ioos:station:TCOON:074:1,2017-07-05T17:30:00Z,27.8516,-97.4820,1.0,6.25,1111122 
TCOON,ioos:station:TCOON:074:1,2017-07-05T18:30:00Z,27.8516,-97.4820,1.0,7.34,1111122 
TCOON,ioos:station:TCOON:074:1,2017-07-05T19:30:00Z,27.8516,-97.4820,1.0,7.47,1111122 
TCOON,ioos:station:TCOON:074:1,2017-07-05T21:30:00Z,27.8516,-97.4820,1.0,7.83,1111122 
TCOON,ioos:station:TCOON:074:1,2017-07-05T22:30:00Z,27.8516,-97.4820,1.0,7.66,1111122 
TCOON,ioos:station:TCOON:074:1,2017-07-05T23:30:00Z,27.8516,-97.4820,1.0,7.45,1111122 
TCOON,ioos:station:TCOON:074:1,2017-07-06T00:30:00Z,27.8516,-97.4820,1.0,7.08,1111122 
TCOON,ioos:station:TCOON:074:1,2017-07-06T01:30:00Z,27.8516,-97.4820,1.0,6.44,1111122 
TCOON,ioos:station:TCOON:074:1,2017-07-06T02:30:00Z,27.8516,-97.4820,1.0,6.15,1111122 
TCOON,ioos:station:TCOON:074:1,2017-07-06T04:30:00Z,27.8516,-97.4820,1.0,6.06,1111122 
TCOON,ioos:station:TCOON:074:1,2017-07-06T05:30:00Z,27.8516,-97.4820,1.0,5.82,1111122 
TCOON,ioos:station:TCOON:074:1,2017-07-06T06:30:00Z,27.8516,-97.4820,1.0,5.46,1111122 
TCOON,ioos:station:TCOON:074:1,2017-07-06T07:30:00Z,27.8516,-97.4820,1.0,5.52,1111122 
TCOON,ioos:station:TCOON:074:1,2017-07-06T08:30:00Z,27.8516,-97.4820,1.0,5.05,1111122 
TCOON,ioos:station:TCOON:074:1,2017-07-06T09:30:00Z,27.8516,-97.4820,1.0,5.33,1111122 
TCOON,ioos:station:TCOON:074:1,2017-07-06T10:30:00Z,27.8516,-97.4820,1.0,5.12,1111122 
TCOON,ioos:station:TCOON:074:1,2017-07-06T11:30:00Z,27.8516,-97.4820,1.0,5.04,1111122 
TCOON,ioos:station:TCOON:074:1,2017-07-06T12:30:00Z,27.8516,-97.4820,1.0,4.81,1111122 
TCOON,ioos:station:TCOON:074:1,2017-07-06T13:30:00Z,27.8516,-97.4820,1.0,4.86,1111122 
TCOON,ioos:station:TCOON:074:1,2017-07-06T14:30:00Z,27.8516,-97.4820,1.0,5.08,1111122 
TCOON,ioos:station:TCOON:074:1,2017-07-06T15:30:00Z,27.8516,-97.4820,1.0,5.45,1111122 
TCOON,ioos:station:TCOON:074:1,2017-07-06T16:30:00Z,27.8516,-97.4820,1.0,6.24,1111122 
TCOON,ioos:station:TCOON:074:1,2017-07-06T17:30:00Z,27.8516,-97.4820,1.0,6.7,1111122 
TCOON,ioos:station:TCOON:074:1,2017-07-06T18:30:00Z,27.8516,-97.4820,1.0,7.04,1111122 
TCOON,ioos:station:TCOON:074:1,2017-07-06T19:30:00Z,27.8516,-97.4820,1.0,7.12,1111122 
TCOON,ioos:station:TCOON:074:1,2017-07-06T20:30:00Z,27.8516,-97.4820,1.0,7.71,1111122 
TCOON,ioos:station:TCOON:074:1,2017-07-06T21:30:00Z,27.8516,-97.4820,1.0,7.56,1111122 
TCOON,ioos:station:TCOON:074:1,2017-07-06T22:30:00Z,27.8516,-97.4820,1.0,7.26,1111122 
TCOON,ioos:station:TCOON:074:1,2017-07-06T23:30:00Z,27.8516,-97.4820,1.0,6.97,1111122 
TCOON,ioos:station:TCOON:074:1,2017-07-07T00:30:00Z,27.8516,-97.4820,1.0,7.13,1111122 
TCOON,ioos:station:TCOON:074:1,2017-07-07T01:30:00Z,27.8516,-97.4820,1.0,6.42,1111122 
TCOON,ioos:station:TCOON:074:1,2017-07-07T02:30:00Z,27.8516,-97.4820,1.0,6.54,1111122 
TCOON,ioos:station:TCOON:074:1,2017-07-07T03:30:00Z,27.8516,-97.4820,1.0,6.43,1111122 
TCOON,ioos:station:TCOON:074:1,2017-07-07T04:30:00Z,27.8516,-97.4820,1.0,6.05,1111122 
TCOON,ioos:station:TCOON:074:1,2017-07-07T05:30:00Z,27.8516,-97.4820,1.0,5.84,1111122 
TCOON,ioos:station:TCOON:074:1,2017-07-07T06:30:00Z,27.8516,-97.4820,1.0,5.6,1111122 
TCOON,ioos:station:TCOON:074:1,2017-07-07T07:30:00Z,27.8516,-97.4820,1.0,5.52,1111122 
TCOON,ioos:station:TCOON:074:1,2017-07-07T08:30:00Z,27.8516,-97.4820,1.0,5.26,1111122 
TCOON,ioos:station:TCOON:074:1,2017-07-07T09:30:00Z,27.8516,-97.4820,1.0,5.04,1111122 
TCOON,ioos:station:TCOON:074:1,2017-07-07T10:30:00Z,27.8516,-97.4820,1.0,5.26,1111122 
TCOON,ioos:station:TCOON:074:1,2017-07-07T11:30:00Z,27.8516,-97.4820,1.0,4.57,1111122 
TCOON,ioos:station:TCOON:074:1,2017-07-07T12:30:00Z,27.8516,-97.4820,1.0,4.72,1111122 
TCOON,ioos:station:TCOON:074:1,2017-07-07T13:30:00Z,27.8516,-97.4820,1.0,4.7,1111122 
TCOON,ioos:station:TCOON:074:1,2017-07-07T14:30:00Z,27.8516,-97.4820,1.0,4.96,1111122 
TCOON,ioos:station:TCOON:074:1,2017-07-07T15:30:00Z,27.8516,-97.4820,1.0,5.28,1111122 
TCOON,ioos:station:TCOON:074:1,2017-07-07T16:30:00Z,27.8516,-97.4820,1.0,5.77,1111122 
TCOON,ioos:station:TCOON:074:1,2017-07-07T17:30:00Z,27.8516,-97.4820,1.0,6.34,1111122 
TCOON,ioos:station:TCOON:074:1,2017-07-07T18:30:00Z,27.8516,-97.4820,1.0,6.12,1111122 
TCOON,ioos:station:TCOON:074:1,2017-07-07T19:30:00Z,27.8516,-97.4820,1.0,6.5,1111122 
TCOON,ioos:station:TCOON:074:1,2017-07-07T20:30:00Z,27.8516,-97.4820,1.0,7.05,1111122 
TCOON,ioos:station:TCOON:074:1,2017-07-07T21:30:00Z,27.8516,-97.4820,1.0,7.31,1111122 
TCOON,ioos:station:TCOON:074:1,2017-07-07T22:30:00Z,27.8516,-97.4820,1.0,7.26,1111122 
TCOON,ioos:station:TCOON:074:1,2017-07-07T23:30:00Z,27.8516,-97.4820,1.0,7.29,1111122 
TCOON,ioos:station:TCOON:074:1,2017-07-08T00:30:00Z,27.8516,-97.4820,1.0,6.97,1111122 
TCOON,ioos:station:TCOON:074:1,2017-07-08T01:30:00Z,27.8516,-97.4820,1.0,6.56,1111122 
TCOON,ioos:station:TCOON:074:1,2017-07-08T02:30:00Z,27.8516,-97.4820,1.0,6.34,1111122 
TCOON,ioos:station:TCOON:074:1,2017-07-08T03:30:00Z,27.8516,-97.4820,1.0,6.15,1111122 
TCOON,ioos:station:TCOON:074:1,2017-07-08T04:30:00Z,27.8516,-97.4820,1.0,5.97,1111122 
TCOON,ioos:station:TCOON:074:1,2017-07-08T05:30:00Z,27.8516,-97.4820,1.0,5.75,1111122 
TCOON,ioos:station:TCOON:074:1,2017-07-08T06:30:00Z,27.8516,-97.4820,1.0,5.64,1111122 
TCOON,ioos:station:TCOON:074:1,2017-07-08T07:30:00Z,27.8516,-97.4820,1.0,5.42,1111122 
TCOON,ioos:station:TCOON:074:1,2017-07-08T08:30:00Z,27.8516,-97.4820,1.0,5.14,1111122 
TCOON,ioos:station:TCOON:074:1,2017-07-08T09:30:00Z,27.8516,-97.4820,1.0,5.19,1111122 
TCOON,ioos:station:TCOON:074:1,2017-07-08T10:30:00Z,27.8516,-97.4820,1.0,5.25,1111122 
TCOON,ioos:station:TCOON:074:1,2017-07-08T11:30:00Z,27.8516,-97.4820,1.0,5.21,1111122 
TCOON,ioos:station:TCOON:074:1,2017-07-08T12:30:00Z,27.8516,-97.4820,1.0,4.78,1111122 
TCOON,ioos:station:TCOON:074:1,2017-07-08T13:30:00Z,27.8516,-97.4820,1.0,4.95,1111122 
TCOON,ioos:station:TCOON:074:1,2017-07-08T14:30:00Z,27.8516,-97.4820,1.0,4.63,1111122 
TCOON,ioos:station:TCOON:074:1,2017-07-08T15:30:00Z,27.8516,-97.4820,1.0,4.56,1111122 
TCOON,ioos:station:TCOON:074:1,2017-07-08T16:30:00Z,27.8516,-97.4820,1.0,5.08,1111122 
TCOON,ioos:station:TCOON:074:1,2017-07-08T17:30:00Z,27.8516,-97.4820,1.0,5.82,1111122 
TCOON,ioos:station:TCOON:074:1,2017-07-08T18:30:00Z,27.8516,-97.4820,1.0,6.32,1111122 
TCOON,ioos:station:TCOON:074:1,2017-07-08T19:30:00Z,27.8516,-97.4820,1.0,7.08,1111122 
TCOON,ioos:station:TCOON:074:1,2017-07-08T20:30:00Z,27.8516,-97.4820,1.0,7.12,1111122 
TCOON,ioos:station:TCOON:074:1,2017-07-08T21:30:00Z,27.8516,-97.4820,1.0,6.82,1111122 
TCOON,ioos:station:TCOON:074:1,2017-07-08T22:30:00Z,27.8516,-97.4820,1.0,6.68,1111122 
TCOON,ioos:station:TCOON:074:1,2017-07-08T23:30:00Z,27.8516,-97.4820,1.0,6.95,1111122 
TCOON,ioos:station:TCOON:074:1,2017-07-09T00:30:00Z,27.8516,-97.4820,1.0,6.66,1111122 
TCOON,ioos:station:TCOON:074:1,2017-07-09T01:30:00Z,27.8516,-97.4820,1.0,6.28,1111122 
TCOON,ioos:station:TCOON:074:1,2017-07-09T02:30:00Z,27.8516,-97.4820,1.0,5.95,1111122 
TCOON,ioos:station:TCOON:074:1,2017-07-09T03:30:00Z,27.8516,-97.4820,1.0,5.78,1111122 
TCOON,ioos:station:TCOON:074:1,2017-07-09T04:30:00Z,27.8516,-97.4820,1.0,5.65,1111122 
TCOON,ioos:station:TCOON:074:1,2017-07-09T05:30:00Z,27.8516,-97.4820,1.0,5.52,1111122 
TCOON,ioos:station:TCOON:074:1,2017-07-09T06:30:00Z,27.8516,-97.4820,1.0,5.35,1111122 
TCOON,ioos:station:TCOON:074:1,2017-07-09T07:30:00Z,27.8516,-97.4820,1.0,5.23,1111122 
TCOON,ioos:station:TCOON:074:1,2017-07-09T08:30:00Z,27.8516,-97.4820,1.0,5.19,1111122 
TCOON,ioos:station:TCOON:074:1,2017-07-09T09:30:00Z,27.8516,-97.4820,1.0,4.97,1111122 
TCOON,ioos:station:TCOON:074:1,2017-07-09T10:30:00Z,27.8516,-97.4820,1.0,4.82,1111122 
TCOON,ioos:station:TCOON:074:1,2017-07-09T11:30:00Z,27.8516,-97.4820,1.0,4.74,1111122 
TCOON,ioos:station:TCOON:074:1,2017-07-09T12:30:00Z,27.8516,-97.4820,1.0,4.68,1111122 
TCOON,ioos:station:TCOON:074:1,2017-07-09T13:30:00Z,27.8516,-97.4820,1.0,4.89,1111122 
TCOON,ioos:station:TCOON:074:1,2017-07-09T14:30:00Z,27.8516,-97.4820,1.0,4.67,1111122 
TCOON,ioos:station:TCOON:074:1,2017-07-09T15:30:00Z,27.8516,-97.4820,1.0,4.59,1111122 
TCOON,ioos:station:TCOON:074:1,2017-07-09T16:30:00Z,27.8516,-97.4820,1.0,4.64,1111122 
TCOON,ioos:station:TCOON:074:1,2017-07-09T22:30:00Z,27.8516,-97.4820,1.0,6.7,1111122 
TCOON,ioos:station:TCOON:074:1,2017-07-10T00:30:00Z,27.8516,-97.4820,1.0,6.5,1111122 
TCOON,ioos:station:TCOON:074:1,2017-07-10T02:00:00Z,27.8516,-97.4820,1.0,5.96,1111122 
TCOON,ioos:station:TCOON:074:1,2017-07-10T05:00:00Z,27.8516,-97.4820,1.0,5.55,1111122 
TCOON,ioos:station:TCOON:074:1,2017-07-10T06:00:00Z,27.8516,-97.4820,1.0,5.45,1111122 
TCOON,ioos:station:TCOON:074:1,2017-07-10T08:00:00Z,27.8516,-97.4820,1.0,5.15,1111122 
TCOON,ioos:station:TCOON:074:1,2017-07-10T09:00:00Z,27.8516,-97.4820,1.0,5.12,1111122 
TCOON,ioos:station:TCOON:074:1,2017-07-10T09:30:00Z,27.8516,-97.4820,1.0,5.16,1111122 
TCOON,ioos:station:TCOON:074:1,2017-07-10T10:30:00Z,27.8516,-97.4820,1.0,4.94,1111122 
TCOON,ioos:station:TCOON:074:1,2017-07-10T11:30:00Z,27.8516,-97.4820,1.0,4.9,1111122 
TCOON,ioos:station:TCOON:074:1,2017-07-10T12:30:00Z,27.8516,-97.4820,1.0,4.66,1111122 
TCOON,ioos:station:TCOON:074:1,2017-07-10T13:30:00Z,27.8516,-97.4820,1.0,4.55,1111122 
TCOON,ioos:station:TCOON:074:1,2017-07-10T14:30:00Z,27.8516,-97.4820,1.0,4.42,1111122 
TCOON,ioos:station:TCOON:074:1,2017-07-10T15:30:00Z,27.8516,-97.4820,1.0,4.61,1111122 
TCOON,ioos:station:TCOON:074:1,2017-07-10T16:30:00Z,27.8516,-97.4820,1.0,5.07,1111122 
TCOON,ioos:station:TCOON:074:1,2017-07-10T17:30:00Z,27.8516,-97.4820,1.0,5.6,1111122 
TCOON,ioos:station:TCOON:074:1,2017-07-10T18:30:00Z,27.8516,-97.4820,1.0,6.32,1111122 
TCOON,ioos:station:TCOON:074:1,2017-07-10T19:30:00Z,27.8516,-97.4820,1.0,6.5,1111122 
TCOON,ioos:station:TCOON:074:1,2017-07-10T20:30:00Z,27.8516,-97.4820,1.0,6.25,1111122 
TCOON,ioos:station:TCOON:074:1,2017-07-10T21:30:00Z,27.8516,-97.4820,1.0,6.18,1111122 
TCOON,ioos:station:TCOON:074:1,2017-07-10T22:30:00Z,27.8516,-97.4820,1.0,6.21,1111122 
TCOON,ioos:station:TCOON:074:1,2017-07-10T23:30:00Z,27.8516,-97.4820,1.0,6.02,1111122 
TCOON,ioos:station:TCOON:074:1,2017-07-11T00:30:00Z,27.8516,-97.4820,1.0,5.72,1111122 
TCOON,ioos:station:TCOON:074:1,2017-07-11T01:30:00Z,27.8516,-97.4820,1.0,5.41,1111122 
TCOON,ioos:station:TCOON:074:1,2017-07-11T02:30:00Z,27.8516,-97.4820,1.0,5.59,1111122 
TCOON,ioos:station:TCOON:074:1,2017-07-11T03:30:00Z,27.8516,-97.4820,1.0,5.48,1111122 
TCOON,ioos:station:TCOON:074:1,2017-07-11T04:30:00Z,27.8516,-97.4820,1.0,5.41,1111122 
TCOON,ioos:station:TCOON:074:1,2017-07-11T05:30:00Z,27.8516,-97.4820,1.0,5.29,1111122 
TCOON,ioos:station:TCOON:074:1,2017-07-11T06:30:00Z,27.8516,-97.4820,1.0,5.16,1111122 
TCOON,ioos:station:TCOON:074:1,2017-07-11T07:30:00Z,27.8516,-97.4820,1.0,4.98,1111122 
TCOON,ioos:station:TCOON:074:1,2017-07-11T08:30:00Z,27.8516,-97.4820,1.0,4.86,1111122 
TCOON,ioos:station:TCOON:074:1,2017-07-11T09:30:00Z,27.8516,-97.4820,1.0,4.73,1111122 
TCOON,ioos:station:TCOON:074:1,2017-07-11T10:30:00Z,27.8516,-97.4820,1.0,4.64,1111122 
TCOON,ioos:station:TCOON:074:1,2017-07-11T11:30:00Z,27.8516,-97.4820,1.0,4.63,1111122 
TCOON,ioos:station:TCOON:074:1,2017-07-11T12:30:00Z,27.8516,-97.4820,1.0,4.58,1111122 
TCOON,ioos:station:TCOON:074:1,2017-07-11T13:30:00Z,27.8516,-97.4820,1.0,4.21,1111122 
TCOON,ioos:station:TCOON:074:1,2017-07-11T14:30:00Z,27.8516,-97.4820,1.0,4.12,1111122 
TCOON,ioos:station:TCOON:074:1,2017-07-11T15:30:00Z,27.8516,-97.4820,1.0,4.26,1111122 
TCOON,ioos:station:TCOON:074:1,2017-07-11T16:30:00Z,27.8516,-97.4820,1.0,4.47,1111122 
TCOON,ioos:station:TCOON:074:1,2017-07-11T17:30:00Z,27.8516,-97.4820,1.0,5.35,1111122 
TCOON,ioos:station:TCOON:074:1,2017-07-11T18:30:00Z,27.8516,-97.4820,1.0,5.84,1111122 
TCOON,ioos:station:TCOON:074:1,2017-07-11T19:30:00Z,27.8516,-97.4820,1.0,6.08,1111122 
TCOON,ioos:station:TCOON:074:1,2017-07-11T20:30:00Z,27.8516,-97.4820,1.0,6.14,1111122 
TCOON,ioos:station:TCOON:074:1,2017-07-11T21:30:00Z,27.8516,-97.4820,1.0,5.88,1111122 
TCOON,ioos:station:TCOON:074:1,2017-07-11T22:30:00Z,27.8516,-97.4820,1.0,5.91,1111122 
TCOON,ioos:station:TCOON:074:1,2017-07-11T23:30:00Z,27.8516,-97.4820,1.0,5.7,1111122 
TCOON,ioos:station:TCOON:074:1,2017-07-12T00:30:00Z,27.8516,-97.4820,1.0,5.29,1111122 
TCOON,ioos:station:TCOON:074:1,2017-07-12T01:30:00Z,27.8516,-97.4820,1.0,5.36,1111122 
TCOON,ioos:station:TCOON:074:1,2017-07-12T02:30:00Z,27.8516,-97.4820,1.0,5.38,1111122 
TCOON,ioos:station:TCOON:074:1,2017-07-12T03:30:00Z,27.8516,-97.4820,1.0,5.24,1111122 
TCOON,ioos:station:TCOON:074:1,2017-07-12T04:30:00Z,27.8516,-97.4820,1.0,5.22,1111122 
TCOON,ioos:station:TCOON:074:1,2017-07-12T05:30:00Z,27.8516,-97.4820,1.0,5.2,1111122 
TCOON,ioos:station:TCOON:074:1,2017-07-12T06:30:00Z,27.8516,-97.4820,1.0,4.87,1111122 
TCOON,ioos:station:TCOON:074:1,2017-07-12T07:30:00Z,27.8516,-97.4820,1.0,4.71,1111122 
TCOON,ioos:station:TCOON:074:1,2017-07-12T08:30:00Z,27.8516,-97.4820,1.0,4.56,1111122 
TCOON,ioos:station:TCOON:074:1,2017-07-12T09:30:00Z,27.8516,-97.4820,1.0,4.37,1111122 
TCOON,ioos:station:TCOON:074:1,2017-07-12T10:30:00Z,27.8516,-97.4820,1.0,4.36,1111122 
TCOON,ioos:station:TCOON:074:1,2017-07-12T11:30:00Z,27.8516,-97.4820,1.0,4.33,1111122 
TCOON,ioos:station:TCOON:074:1,2017-07-12T12:30:00Z,27.8516,-97.4820,1.0,4.35,1111122 
TCOON,ioos:station:TCOON:074:1,2017-07-12T13:30:00Z,27.8516,-97.4820,1.0,3.75,1111122 
TCOON,ioos:station:TCOON:074:1,2017-07-12T14:30:00Z,27.8516,-97.4820,1.0,4.25,1111122 
TCOON,ioos:station:TCOON:074:1,2017-07-12T15:30:00Z,27.8516,-97.4820,1.0,4.32,1111122 
TCOON,ioos:station:TCOON:074:1,2017-07-12T16:30:00Z,27.8516,-97.4820,1.0,5.25,1111122 
TCOON,ioos:station:TCOON:074:1,2017-07-12T17:30:00Z,27.8516,-97.4820,1.0,5.59,1111122 
TCOON,ioos:station:TCOON:074:1,2017-07-12T18:30:00Z,27.8516,-97.4820,1.0,5.84,1111122 
TCOON,ioos:station:TCOON:074:1,2017-07-12T19:30:00Z,27.8516,-97.4820,1.0,5.52,1111122 
TCOON,ioos:station:TCOON:074:1,2017-07-12T20:30:00Z,27.8516,-97.4820,1.0,5.65,1111122 
TCOON,ioos:station:TCOON:074:1,2017-07-12T21:30:00Z,27.8516,-97.4820,1.0,5.68,1111122 
TCOON,ioos:station:TCOON:074:1,2017-07-12T22:30:00Z,27.8516,-97.4820,1.0,5.83,1111122 
TCOON,ioos:station:TCOON:074:1,2017-07-13T00:30:00Z,27.8516,-97.4820,1.0,5.4,1111122 
TCOON,ioos:station:TCOON:074:1,2017-07-13T01:30:00Z,27.8516,-97.4820,1.0,5.37,1111122 
TCOON,ioos:station:TCOON:074:1,2017-07-13T02:30:00Z,27.8516,-97.4820,1.0,5.21,1111122 
TCOON,ioos:station:TCOON:074:1,2017-07-13T03:30:00Z,27.8516,-97.4820,1.0,5.08,1111122 
TCOON,ioos:station:TCOON:074:1,2017-07-13T04:30:00Z,27.8516,-97.4820,1.0,4.96,1111122 
TCOON,ioos:station:TCOON:074:1,2017-07-13T05:30:00Z,27.8516,-97.4820,1.0,4.07,1111122 
TCOON,ioos:station:TCOON:074:1,2017-07-13T06:30:00Z,27.8516,-97.4820,1.0,2.73,1111122 
TCOON,ioos:station:TCOON:074:1,2017-07-13T07:30:00Z,27.8516,-97.4820,1.0,1.65,1111122 
TCOON,ioos:station:TCOON:074:1,2017-07-13T08:30:00Z,27.8516,-97.4820,1.0,1.14,1111122 
TCOON,ioos:station:TCOON:074:1,2017-07-13T09:30:00Z,27.8516,-97.4820,1.0,1.44,1111122 